Flag for Norway Weather past 2 weeks in Kolbotn, Norway

Now
39 °F

Rain showers. Partly sunny.


Feels Like: 30 °F
Forecast: 26 / 35 °F
Wind: 17 mph from Northwest

Location: Oslo / Fornebu

Current Time: Dec 20, 2014 at 11:30:09 AM

Latest Report: Dec 20, 2014 at 10:50 AM


Visibility: 4 mi

Pressure: 29.39 "Hg

Humidity: 87%

Dew point: 36 °F

Location of KolbotnLocation

Historic Weather in Kolbotn — Graph

°F

Kolbotn temperature yesterday

Maximum temperature yesterday: 43 °F (at 12:20 AM)
Minimum temperature yesterday: 37 °F (at 11:20 AM)
Average temperature yesterday: 41 °F

Past Weeks' High & Low Weather Summary

 TemperatureHumidityPressure
High48 °F (Dec 6, 4:50 PM)100% (Dec 6, 3:50 PM)30.01 "Hg (Dec 6, 3:50 PM)
Low32 °F (Dec 15, 9:20 PM)41% (Dec 15, 11:20 AM)28.53 "Hg (Dec 11, 2:50 AM)
Average42 °F73%29.17 "Hg
* Reported Dec 5 10:20 AM — Dec 20 10:20 AM, Kolbotn, Weather by CustomWeather, © 2014

Note: Actual official high and low records may vary slightly from our data, if they occured in-between our weather recording intervals... More about our weather records

Advertising

Kolbotn weather history for previous 24 hours

 ConditionsComfort  
Time TempWeatherWind HumidityBarometerVisibility
10:20 AM
Dec 20
43 °FPartly sunny.32 mph71%29.36 "HgN/A
9:50 AM41 °FPartly sunny.36 mph70%29.36 "HgN/A
9:20 AM41 °FPassing clouds.41 mph70%29.33 "HgN/A
8:50 AM43 °FPartly cloudy.43 mph61%29.30 "HgN/A
8:20 AM41 °FPassing clouds.43 mph70%29.27 "HgN/A
7:50 AM41 °FPassing clouds.41 mph81%29.24 "HgN/A
7:20 AM41 °FPartly cloudy.41 mph76%29.21 "HgN/A
6:50 AM41 °FPassing clouds.37 mph81%29.21 "HgN/A
6:20 AM41 °FRain showers. Partly cloudy.30 mph70%29.21 "HgN/A
5:50 AM43 °FPartly cloudy.28 mph53%29.18 "HgN/A
5:20 AM43 °FPassing clouds.28 mph53%29.18 "HgN/A
4:50 AM43 °FPassing clouds.22 mph57%29.15 "HgN/A
4:20 AM43 °FPassing clouds.20 mph49%29.15 "HgN/A
3:50 AM43 °FPartly cloudy.18 mph57%29.12 "HgN/A
3:20 AM41 °FPassing clouds.18 mph57%29.12 "HgN/A
2:50 AM43 °FPassing clouds.20 mph57%29.12 "HgN/A
2:20 AM41 °FSprinkles. Passing clouds.21 mph66%29.12 "HgN/A
1:50 AM43 °FSprinkles. Passing clouds.28 mph66%29.09 "HgN/A
1:20 AM43 °FPartly cloudy.31 mph61%29.09 "HgN/A
12:50 AM41 °FPassing clouds.35 mph61%29.09 "HgN/A
12:20 AM41 °FPassing clouds.33 mph66%29.06 "HgN/A
11:50 PM
Dec 19
41 °FSprinkles. Passing clouds.38 mph66%29.06 "HgN/A
11:20 PM43 °FSprinkles. Partly cloudy.29 mph66%29.06 "HgN/A
10:50 PM41 °FPassing clouds.30 mph76%29.06 "HgN/A
10:20 PM39 °FSprinkles. Partly cloudy.26 mph81%29.06 "HgN/A
9:50 PM39 °FPartly cloudy.14 mph81%29.06 "HgN/A
9:20 PM41 °FSprinkles. Passing clouds.31 mph76%29.06 "HgN/A
8:50 PM43 °FPassing clouds.28 mph66%29.06 "HgN/A
8:20 PM41 °FPassing clouds.28 mph70%29.06 "HgN/A
7:50 PM41 °FPassing clouds.25 mph76%29.06 "HgN/A
7:20 PM41 °FSprinkles. Passing clouds.32 mph66%29.06 "HgN/A
6:50 PM41 °FPassing clouds.31 mph70%29.06 "HgN/A
6:20 PM41 °FPassing clouds.39 mph66%29.03 "HgN/A
5:50 PM37 °FSprinkles. Passing clouds.24 mph93%29.03 "HgN/A
5:20 PM37 °FPassing clouds.52 mph87%29.00 "HgN/A
4:50 PM41 °FPassing clouds.28 mph81%28.97 "HgN/A
4:20 PM39 °FSprinkles. Passing clouds.17 mph87%28.94 "HgN/A
3:50 PM41 °FPartly cloudy.33 mph76%28.91 "HgN/A
3:20 PM41 °FSprinkles. Passing clouds.25 mph76%28.94 "HgN/A
2:50 PM41 °FBroken clouds.33 mph76%28.97 "HgN/A
2:20 PM43 °FBroken clouds.38 mph71%28.94 "HgN/A
1:50 PM41 °FPartly sunny.26 mph76%28.97 "HgN/A
1:20 PM41 °FBroken clouds.23 mph76%28.94 "HgN/A
12:50 PM41 °FPartly sunny.30 mph81%28.94 "HgN/A
12:20 PM39 °FSprinkles. Partly sunny.28 mph81%28.94 "HgN/A
11:50 AM41 °FPassing clouds.29 mph76%28.94 "HgN/A
11:20 AM37 °FRain. Partly sunny.26 mph81%28.94 "Hg6 mi
Weather by CustomWeather, © 2014

See weather overviewHow to use our weather pages